Regional Weather Roundup
Issued by NWS

Home | Current Version | Previous Version | Graphics & Text | Print | Product List | Glossary On
Versions: 1 2 3 4 5 6 7 8 9 10 11 12 13 14 15 16 17 18 19 20 21 22 23 24 25 26 27
000
ASUS45 KCYS 220710
RWRWY

WYOMING REGIONAL WEATHER ROUNDUP
NATIONAL WEATHER SERVICE CHEYENNE WY
100 AM MDT WED OCT 22 2014

NOTE:  "FAIR" INDICATES FEW OR NO CLOUDS BELOW 12,000 FEET
WITH NO SIGNIFICANT WEATHER AND/OR OBSTRUCTIONS TO VISIBILITY.

WYZ001-220800-
YELLOWSTONE NATIONAL PARK

CITY           SKY/WX    TMP DP  RH WIND       PRES   REMARKS
LK YELLOWSTONE   N/A     27  25  92 NW3       30.11F
W YELLOWSTONE  NOT AVBL

$$
WYZ002>013-054>058-071-098>099-220800-
NORTHERN WYOMING

CITY           SKY/WX    TMP DP  RH WIND       PRES   REMARKS
JACKSON        CLOUDY    37  30  75 CALM      30.11S
CODY           CLEAR    N/A N/A N/A CALM      29.98R
GREYBULL       CLEAR     41  21  44 W6        29.94R
WORLAND        FLURRIES  36  23  59 S6        29.96R WCI  31
SHERIDAN       PTCLDY    48  29  47 NW17      29.94R
BUFFALO        MOCLDY    45  28  51 N12G24    29.96R
GILLETTE       MOCLDY    50  24  36 NW12      29.92R
HULETT         FAIR      54  36  50 NW3       29.91
NEWCASTLE      FAIR      57  34  41 N6        29.88

$$
WYZ014>020-022>026-101>103-220800-
CENTRAL WYOMING

CITY           SKY/WX    TMP DP  RH WIND       PRES   REMARKS
BIG PINEY      CLEAR     26  21  81 N3        30.14R
PINEDALE       SUNNY     27  25  93 NW5       30.14R WCI  21
DUBOIS         FAIR      36  23  60 NW7G20    30.07R WCI  30
LANDER         PTCLDY    36  24  62 NW8       30.01R WCI  30
RIVERTON       CLEAR     40  22  48 SW6       30.01R
CASPER         MOCLDY    45  23  42 W6        29.98R
DOUGLAS        CLOUDY    58  38  47 W8        29.95R

$$
WYZ021-027>030-104>119-220800-
SOUTHERN WYOMING

CITY           SKY/WX    TMP DP  RH WIND       PRES   REMARKS
EVANSTON       CLEAR     37  26  64 CALM      30.14S
FORT BRIDGER   FAIR      35  28  77 W7        30.16S WCI  29
ROCK SPRINGS   PTCLDY    37  31  78 W13       30.12R WCI  29
DIXON          LGT RAIN  45  43  93 CALM      30.15S
RAWLINS        CLOUDY    45  34  65 W14       30.09S
SARATOGA       CLOUDY    43  37  81 W8        30.11R
LARAMIE        CLOUDY    43  38  82 S5        30.07F
CHEYENNE       LGT RAIN  50  41  71 NE3       30.04F
TORRINGTON     CLOUDY    57  45  64 S10       29.94R
PINE BLUFFS    RAIN      50  48  93 NW15      29.99F

$$



USA.gov is the U.S. government's official web portal to all federal, state and local government web resources and services.